Preview of NWS' New Version of Forecast
This preview is not operational and should not be used for support decisions.

Regional Weather Roundup (RWR)

Issued by National Weather Service (NWS)

                            
000
ASUS43 KTOP 250208
RWRKS 

WEATHER ROUNDUP FOR KANSAS
NATIONAL WEATHER SERVICE GOODLAND KS
900 PM CDT SAT AUG 24 2019

NOTE:  "FAIR" INDICATES FEW OR NO CLOUDS BELOW 12,000 FEET WITH NO
SIGNIFICANT WEATHER AND/OR OBSTRUCTIONS TO VISIBILITY.

KSZ001>006-013>018-027>032-041>047-250300-
NORTHWEST KANSAS
  
CITY           SKY/WX    TMP DP  RH WIND       PRES   REMARKS
GOODLAND       CLOUDY    70  66  87 E5        29.97S                  
HAYS           PTCLDY    74  69  85 SE15      29.74F                  
HILL CITY      MOCLDY    73  69  87 E13       29.90F                  
RUSSELL        CLOUDY    72  69  90 SE15      29.92S                  
$$

KSZ061>065-074>080-084>089-250300-
SOUTHWEST KANSAS
  
CITY           SKY/WX    TMP DP  RH WIND       PRES   REMARKS
DODGE CITY     CLEAR     76  65  68 SE12      29.92F                  
ELKHART        CLEAR     78  71  77 SE13      29.92S                  
GARDEN CITY    CLEAR     76  64  66 SE8       29.94R                  
GREAT BEND     CLEAR     75  70  84 E10       29.93F                  
LIBERAL        CLEAR     77  67  71 SE12      29.92F                  
$$

KSZ066>073-081>083-090>101-250300-
SOUTHEAST KANSAS
  
CITY           SKY/WX    TMP DP  RH WIND       PRES   REMARKS
CHANUTE        CLOUDY    73  68  84 E9        30.00R                  
COFFEYVILLE    PTCLDY    74  71  91 E7        29.96R                  
HUTCHINSON     PTCLDY    76  70  82 E15       29.93F                  
MEDICINE LODGE   N/A     79  71  76 SE8G18    29.92F                  
NEWTON         CLOUDY    72  69  90 E13       29.98S                  
PARSONS        PTCLDY    73  70  90 VRB6      29.99R                  
WICHITA INTL   MOCLDY    79  71  76 E12       29.95R                  
WICHITA JABRA  CLOUDY    75  71  87 E9        29.96R                  
WICHITA MCCONL MOCLDY    77  69  77 NE9       29.96                   
WINFIELD       PTCLDY    78  72  81 E7        29.96R                  
$$

KSZ007>012-019>026-033>040-048>060-102>105-250300-
NORTHEAST KANSAS
  
CITY           SKY/WX    TMP DP  RH WIND       PRES   REMARKS
CONCORDIA      TSTM      70  68  93 E12G18    30.00F FOG              
EMPORIA        CLOUDY    70  67  90 E12       30.01R                  
LAWRENCE       CLOUDY    71  62  73 SE5       30.04R                  
MANHATTAN      CLOUDY    71  66  84 E9        29.99F                  
MARYSVILLE     CLEAR     68  64  88 SE8       30.00S                  
OLATHE IND     CLOUDY    69  61  75 E7        30.05R                  
OLATHE EXE     CLOUDY    69  62  78 E6        30.04S                  
SALINA         CLEAR     73  67  81 E15       29.96S                  
TOPEKA BILLARD CLOUDY    70  62  76 SE8       30.03R                  
TOPEKA FORBES  CLOUDY    70  63  78 E8        30.03R                  
$$